When you browse on this site, cookies collect data to enhance your experience and personalize the content and advertising you see.
Visit our Privacy Policy to learn more. By continuing to use the site, you agree to this use of cookies and data.
  • In Hungary
  • List of Countries
  • For 7 days
  • Water Temperature
  • Weather Map
  • News
  • Weather Widgets
  • user-avatar
    Login

    Hourly Weather Jandiala

    Today, 14 November, Thursday

    Time Temperature Precipitation Wind Pressure Humidity
    00:00 +23°C° 0 mm 2 mps 742 mmHg 36%
    01:00 +21°C° 0 mm 2 mps 742 mmHg 36%
    02:00 +21°C° 0 mm 2 mps 741 mmHg 37%
    03:00 +21°C° 0.1 mm 2 mps 741 mmHg 39%
    04:00 +21°C° 0.1 mm 2 mps 741 mmHg 40%
    05:00 +20°C° 0 mm 2 mps 741 mmHg 44%
    06:00 +21°C° 0.1 mm 2 mps 742 mmHg 45%
    07:00 +21°C° 0.1 mm 2 mps 742 mmHg 46%
    08:00 +23°C° 0.1 mm 2 mps 742 mmHg 47%
    09:00 +24°C° 0.1 mm 2 mps 742 mmHg 43%
    10:00 +25°C° 0.1 mm 2 mps 742 mmHg 39%
    11:00 +27°C° 0.1 mm 2 mps 742 mmHg 35%
    12:00 +27°C° 0.2 mm 2 mps 742 mmHg 36%
    13:00 +27°C° 0.2 mm 2 mps 742 mmHg 36%
    14:00 +27°C° 0.2 mm 2 mps 742 mmHg 37%
    15:00 +27°C° 0.1 mm 2 mps 742 mmHg 37%
    16:00 +26°C° 0.1 mm 2 mps 742 mmHg 38%
    17:00 +25°C° 0.1 mm 2 mps 742 mmHg 38%
    18:00 +25°C° 0 mm 2 mps 742 mmHg 40%
    19:00 +24°C° 0 mm 2 mps 743 mmHg 41%
    20:00 +24°C° 0 mm 2 mps 743 mmHg 42%
    21:00 +23°C° 0 mm 2 mps 743 mmHg 43%
    22:00 +22°C° 0 mm 3 mps 743 mmHg 44%
    23:00 +21°C° 0 mm 3 mps 742 mmHg 45%

    Tomorrow, 15 November, Friday

    Time Temperature Precipitation Wind Pressure Humidity
    00:00 +21°C° 0 mm 2 mps 742 mmHg 45%
    01:00 +21°C° 0 mm 2 mps 741 mmHg 46%
    02:00 +22°C° 0 mm 1 mps 741 mmHg 47%
    03:00 +21°C° 0.1 mm 2 mps 741 mmHg 48%
    04:00 +21°C° 0.1 mm 2 mps 741 mmHg 50%
    05:00 +20°C° 0.1 mm 3 mps 741 mmHg 52%
    06:00 +21°C° 0.1 mm 3 mps 741 mmHg 51%
    07:00 +21°C° 0.1 mm 3 mps 742 mmHg 51%
    08:00 +21°C° 0.1 mm 4 mps 742 mmHg 51%
    09:00 +24°C° 0 mm 3 mps 742 mmHg 48%
    10:00 +26°C° 0 mm 3 mps 742 mmHg 45%
    11:00 +27°C° 0 mm 2 mps 742 mmHg 42%
    12:00 +27°C° 0 mm 3 mps 742 mmHg 43%
    13:00 +27°C° 0 mm 4 mps 741 mmHg 43%
    14:00 +27°C° 0 mm 4 mps 741 mmHg 44%
    15:00 +26°C° 0 mm 3 mps 741 mmHg 47%
    16:00 +25°C° 0 mm 2 mps 741 mmHg 51%
    17:00 +24°C° 0 mm 1 mps 740 mmHg 55%
    18:00 +24°C° 0 mm 1 mps 741 mmHg 55%
    19:00 +24°C° 0 mm 2 mps 741 mmHg 56%
    20:00 +23°C° 0 mm 2 mps 741 mmHg 56%
    21:00 +23°C° 0 mm 2 mps 741 mmHg 57%
    22:00 +23°C° 0 mm 2 mps 741 mmHg 59%
    23:00 +21°C° 0 mm 2 mps 741 mmHg 60%

    Day after tomorrow, 16 November, Saturday

    Time Temperature Precipitation Wind Pressure Humidity
    00:00 +21°C° 0 mm 2 mps 740 mmHg 59%
    01:00 +21°C° 0 mm 2 mps 740 mmHg 58%
    02:00 +21°C° 0 mm 2 mps 740 mmHg 57%
    03:00 +20°C° 0 mm 2 mps 740 mmHg 58%
    04:00 +20°C° 0 mm 2 mps 740 mmHg 60%
    05:00 +20°C° 0 mm 3 mps 740 mmHg 61%
    06:00 +20°C° 0.2 mm 3 mps 740 mmHg 61%
    07:00 +20°C° 0.2 mm 3 mps 741 mmHg 62%
    08:00 +21°C° 0.2 mm 3 mps 741 mmHg 62%
    09:00 +22°C° 0 mm 3 mps 742 mmHg 57%
    10:00 +24°C° 0 mm 3 mps 742 mmHg 52%
    11:00 +26°C° 0 mm 4 mps 742 mmHg 46%
    12:00 +26°C° 0 mm 3 mps 741 mmHg 44%
    13:00 +27°C° 0 mm 3 mps 741 mmHg 42%
    14:00 +27°C° 0 mm 3 mps 741 mmHg 39%
    15:00 +27°C° 0 mm 3 mps 741 mmHg 42%
    16:00 +26°C° 0 mm 3 mps 741 mmHg 44%
    17:00 +25°C° 0 mm 3 mps 741 mmHg 47%
    18:00 +24°C° 0 mm 3 mps 741 mmHg 48%
    19:00 +22°C° 0 mm 3 mps 741 mmHg 50%
    20:00 +21°C° 0 mm 2 mps 741 mmHg 52%
    21:00 +21°C° 0 mm 3 mps 742 mmHg 54%
    22:00 +20°C° 0 mm 3 mps 742 mmHg 56%
    23:00 +20°C° 0 mm 3 mps 742 mmHg 58%

    17 November, Sunday

    Time Temperature Precipitation Wind Pressure Humidity
    00:00 +19°C° 0 mm 3 mps 741 mmHg 60%
    01:00 +19°C° 0 mm 3 mps 741 mmHg 62%
    02:00 +18°C° 0 mm 3 mps 741 mmHg 65%
    03:00 +18°C° 0 mm 2 mps 741 mmHg 65%
    04:00 +18°C° 0 mm 2 mps 741 mmHg 66%
    05:00 +17°C° 0 mm 2 mps 740 mmHg 66%
    06:00 +18°C° 0 mm 3 mps 741 mmHg 63%
    07:00 +19°C° 0 mm 3 mps 741 mmHg 60%
    08:00 +20°C° 0 mm 3 mps 742 mmHg 57%
    09:00 +22°C° 0 mm 3 mps 742 mmHg 50%
    10:00 +25°C° 0 mm 3 mps 741 mmHg 43%
    11:00 +27°C° 0 mm 4 mps 741 mmHg 36%
    12:00 +28°C° 0 mm 4 mps 741 mmHg 33%
    13:00 +29°C° 0 mm 4 mps 740 mmHg 31%
    14:00 +30°C° 0 mm 4 mps 739 mmHg 28%
    15:00 +29°C° 0 mm 3 mps 739 mmHg 32%
    16:00 +27°C° 0 mm 3 mps 739 mmHg 35%
    17:00 +26°C° 0 mm 3 mps 739 mmHg 38%
    18:00 +25°C° 0 mm 2 mps 739 mmHg 41%
    19:00 +24°C° 0 mm 2 mps 739 mmHg 43%
    20:00 +23°C° 0 mm 2 mps 740 mmHg 46%
    21:00 +21°C° 0 mm 2 mps 740 mmHg 48%
    22:00 +21°C° 0 mm 2 mps 740 mmHg 50%
    23:00 +20°C° 0 mm 2 mps 740 mmHg 52%

    18 November, Monday

    Time Temperature Precipitation Wind Pressure Humidity
    00:00 +20°C° 0 mm 2 mps 739 mmHg 53%
    01:00 +19°C° 0 mm 2 mps 739 mmHg 55%
    02:00 +19°C° 0 mm 2 mps 739 mmHg 57%
    03:00 +18°C° 0 mm 2 mps 739 mmHg 58%
    04:00 +18°C° 0 mm 2 mps 738 mmHg 59%
    05:00 +18°C° 0 mm 1 mps 738 mmHg 61%
    06:00 +19°C° 0 mm 1 mps 739 mmHg 59%
    07:00 +19°C° 0 mm 2 mps 739 mmHg 57%
    08:00 +19°C° 0 mm 2 mps 739 mmHg 54%
    09:00 +21°C° 0 mm 2 mps 739 mmHg 47%
    10:00 +25°C° 0 mm 3 mps 739 mmHg 40%
    11:00 +27°C° 0 mm 3 mps 739 mmHg 33%
    12:00 +28°C° 0 mm 3 mps 739 mmHg 30%
    13:00 +29°C° 0 mm 3 mps 738 mmHg 28%
    14:00 +30°C° 0 mm 3 mps 738 mmHg 25%
    15:00 +28°C° 0 mm 3 mps 738 mmHg 28%
    16:00 +27°C° 0 mm 2 mps 738 mmHg 30%
    17:00 +25°C° 0 mm 2 mps 738 mmHg 33%
    18:00 +24°C° 0 mm 2 mps 738 mmHg 35%
    19:00 +23°C° 0 mm 1 mps 738 mmHg 37%
    20:00 +22°C° 0 mm 1 mps 739 mmHg 39%
    21:00 +22°C° 0 mm 1 mps 739 mmHg 41%
    22:00 +21°C° 0 mm 1 mps 739 mmHg 42%
    23:00 +21°C° 0 mm 1 mps 739 mmHg 44%

    19 November, Tuesday

    Time Temperature Precipitation Wind Pressure Humidity
    00:00 +18°C° 0 mm 0 mps 739 mmHg 46%
    01:00 +18°C° 0 mm 0 mps 738 mmHg 47%
    02:00 +17°C° 0 mm 0 mps 738 mmHg 49%
    03:00 +17°C° 0 mm 0 mps 738 mmHg 50%
    04:00 +17°C° 0 mm 0 mps 738 mmHg 51%
    05:00 +16°C° 0 mm 0 mps 738 mmHg 52%
    06:00 +17°C° 0 mm 0 mps 738 mmHg 50%
    07:00 +18°C° 0 mm 0 mps 738 mmHg 48%
    08:00 +19°C° 0 mm 0 mps 739 mmHg 45%
    09:00 +21°C° 0 mm 0 mps 739 mmHg 40%
    10:00 +25°C° 0 mm 1 mps 739 mmHg 35%
    11:00 +27°C° 0 mm 1 mps 739 mmHg 30%
    12:00 +28°C° 0 mm 2 mps 738 mmHg 27%
    13:00 +29°C° 0 mm 2 mps 738 mmHg 24%
    14:00 +29°C° 0 mm 2 mps 737 mmHg 21%
    15:00 +28°C° 0 mm 2 mps 737 mmHg 23%
    16:00 +26°C° 0 mm 2 mps 737 mmHg 26%
    17:00 +25°C° 0 mm 1 mps 737 mmHg 28%
    18:00 +24°C° 0 mm 1 mps 737 mmHg 29%
    19:00 +23°C° 0 mm 1 mps 737 mmHg 31%
    20:00 +22°C° 0 mm 1 mps 738 mmHg 33%
    21:00 +21°C° 0 mm 1 mps 738 mmHg 34%
    22:00 +21°C° 0 mm 1 mps 738 mmHg 35%
    23:00 +21°C° 0 mm 1 mps 738 mmHg 36%
    Show more